Home > Weather > Broome > Past weeks

Flag for Australia Past Weather in Broome, Western Australia, Australia — Yesterday and Last 2 Weeks

Now
87 °F

Pleasantly warm.


Feels Like: 83 °F
Forecast: 64 / 84 °F
Wind: 5 mph from South

Location: Broome Airport

Current Time: Jul 29, 2016 at 6:17:37 PM

Latest Report: Jul 29, 2016 at 5:00 PM


Visibility: N/A

Pressure: 29.92 "Hg

Humidity: 11%

Dew Point: 27 °F

Location of BroomeLocation

Past Weather in Broome — Graph

°F

Broome Temperature Yesterday

Maximum temperature yesterday: 89 °F (at 3:00 PM)
Minimum temperature yesterday: 67 °F (at 3:00 AM)
Average temperature yesterday: 77 °F

High & Low Weather Summary for the Past Weeks

 TemperatureHumidityPressure
High94 °F (Jul 27, 2:00 PM)96% (Jul 21, 3:00 AM)30.09 "Hg (Jul 21, 3:00 AM)
Low49 °F (Jul 18, 6:00 AM)7% (Jul 29, 12:00 PM)29.84 "Hg (Jul 22, 3:00 PM)
Average72 °F45%29.97 "Hg
* Reported Jul 14 5:00 PM — Jul 29 5:00 PM, Broome, Weather by CustomWeather, © 2016

Note: Actual official high and low records may vary slightly from our data, if they occured in-between our weather recording intervals... More about our weather records

Advertising

Broome Weather History for the Previous 24 Hours

Scroll right to see more
 ConditionsComfort  
Time TempWeatherWind HumidityBarometerVisibility
5:00 PM
Fri, Jul 29
87 °FPleasantly warm.5 mph11%29.92 "HgN/A
3:00 PM89 °FHot.8 mph8%29.91 "HgN/A
2:00 PM89 °FHot.13 mph8%29.92 "HgN/A
12:00 PM88 °FPleasantly warm.14 mph7%29.97 "HgN/A
11:00 AM85 °FPleasantly warm.13 mph8%30.01 "HgN/A
9:00 AM77 °FPleasantly warm.16 mph12%30.05 "HgN/A
8:00 AM70 °FMild.14 mph18%30.04 "HgN/A
6:00 AM60 °FRefreshingly cool.7 mph30%30.02 "HgN/A
5:00 AM59 °FRefreshingly cool.8 mph36%30.01 "HgN/A
3:00 AM61 °FRefreshingly cool.7 mph31%30.00 "HgN/A
2:00 AM63 °FMild.6 mph25%30.00 "HgN/A
12:00 AM64 °FMild.7 mph29%30.01 "HgN/A
11:00 PM
Thu, Jul 28
67 °FMild.6 mph44%30.01 "HgN/A
9:00 PM76 °FMild.7 mph41%30.02 "HgN/A
8:00 PM76 °FMild.8 mph38%30.01 "HgN/A
6:00 PM80 °FPleasantly warm.6 mph20%29.97 "HgN/A
Weather by CustomWeather, © 2016

See weather overviewHow to use our weather pages